Wind_Speed
30 33 34 34 33 32 31 31 31 29 26 25 24 22 20 19 17 16 16 14 13 11 11 12 13 13 15 17 15 9 8 9 18 28 36 40 41 43 43 43 42 40 38 36 34 33 32 31 30 29 28 27 26 25 26 27 28 28 29 29 29 28 28 28 29 30 31 31 32 32 32 30 29 27 27 27 27 26 26 25 25 25 25 25 24 24 23
26 31 34 35 36 35 33 32 32 32 29 26 25 24 23 22 20 18 18 17 15 13 11 11 12 12 13 16 16 11 8 7 10 18 25 32 39 46 47 45 44 41 38 37 35 33 32 31 31 30 29 29 27 26 26 26 27 28 28 28 28 28 27 27 28 29 30 30 31 32 33 32 31 30 29 29 28 28 28 27 27 26 26 25 25 25 25
23 27 30 34 37 38 37 35 33 33 32 30 27 25 25 24 22 21 20 19 18 15 13 11 12 12 11 12 15 14 9 8 5 10 15 19 29 42 46 43 41 39 37 36 36 35 34 32 31 31 30 29 29 28 28 28 29 29 30 30 30 29 29 28 28 28 28 27 28 29 30 31 31 31 30 30 30 29 29 28 27 26 25 25 25 25 25
21 24 27 30 34 38 39 39 36 34 33 32 30 28 27 26 24 22 21 22 20 17 15 14 14 13 11 10 11 13 12 9 6 4 8 14 21 29 34 34 35 36 38 38 37 36 36 35 34 32 32 32 31 32 32 33 33 33 33 33 33 32 31 29 29 29 29 27 26 27 27 28 30 31 31 30 30 29 28 28 27 26 25 26 27 27 26
20 23 25 27 30 34 37 39 39 37 34 33 32 30 29 28 25 22 23 24 23 19 17 17 16 15 13 11 9 10 12 12 9 5 3 9 15 19 22 24 25 27 32 38 41 41 39 37 36 36 35 35 34 35 35 35 35 36 37 37 36 35 33 30 31 33 34 30 27 27 27 26 26 28 29 29 29 28 28 28 27 25 25 26 28 28 27
22 23 24 25 26 28 31 35 38 38 36 35 34 32 30 30 27 23 23 25 25 23 21 20 19 17 16 14 13 11 11 13 12 9 6 6 10 13 15 17 19 19 22 28 36 42 42 40 39 38 37 37 36 35 34 33 34 36 38 39 39 38 37 35 34 36 38 35 32 31 30 28 27 26 26 27 29 29 29 29 28 26 26 27 28 28 26
21 22 22 23 23 24 26 30 33 36 36 36 35 33 32 32 30 26 24 26 27 26 24 23 22 20 18 17 14 13 13 15 14 13 12 10 10 11 11 13 15 15 15 17 23 29 32 33 33 33 33 33 32 31 31 31 32 33 34 37 41 42 41 40 39 39 38 37 37 37 35 33 32 29 27 27 29 29 28 28 28 28 29 29 28 26 24
17 19 20 20 21 21 22 25 28 32 34 35 35 35 35 34 33 29 26 27 28 28 27 27 25 23 20 19 16 15 17 18 16 15 16 16 16 15 13 12 12 12 13 14 15 17 19 20 21 22 22 23 23 23 24 26 28 31 33 35 39 43 45 44 44 43 41 40 41 41 39 37 36 34 31 30 30 28 27 28 29 30 29 28 27 25 23
16 16 18 18 18 19 20 22 25 28 31 33 34 34 35 35 34 32 29 28 29 29 29 29 29 27 24 21 21 21 21 19 16 16 16 16 16 17 17 15 13 12 12 13 14 13 13 14 14 15 15 16 16 16 17 18 21 25 31 35 38 42 45 48 50 48 44 42 43 42 39 39 38 37 35 34 31 29 30 31 31 31 30 29 28 26 25
16 16 16 17 17 18 19 21 23 25 27 30 32 33 33 34 35 35 32 29 29 31 31 31 31 30 28 26 26 26 24 22 19 16 15 16 17 18 17 14 13 13 13 13 13 12 12 12 13 14 14 14 14 13 12 13 14 16 21 28 34 38 42 46 52 52 48 45 46 46 43 41 41 38 35 34 33 33 34 35 34 33 32 31 30 29 28
16 17 17 17 17 18 19 20 22 24 25 27 29 31 32 33 34 36 35 32 30 31 34 34 32 31 31 30 30 30 28 25 23 17 12 15 17 15 14 13 12 13 13 13 13 14 13 14 14 14 14 13 13 13 12 12 11 11 12 16 22 29 34 38 44 49 50 47 45 45 45 43 41 39 37 35 34 34 36 37 36 34 33 32 32 32 31
17 19 19 19 18 18 19 20 21 22 23 25 27 29 31 32 33 35 37 35 31 30 32 34 33 32 33 32 32 32 29 25 25 21 12 10 13 13 12 11 12 13 13 13 13 14 14 16 17 17 16 15 13 13 13 13 12 12 12 14 16 19 25 31 35 39 43 44 42 42 42 40 37 36 37 37 36 35 36 38 37 35 33 32 32 32 31
17 20 21 21 20 19 19 20 21 22 22 24 26 28 29 30 32 34 36 36 33 30 29 30 30 31 33 33 32 32 27 20 21 22 17 11 12 14 13 12 13 14 14 14 16 16 14 14 15 15 15 15 14 12 12 13 12 10 9 11 12 12 14 21 25 27 28 30 31 33 35 36 36 36 36 37 36 35 35 36 35 33 32 30 29 28 27
17 19 21 21 21 21 21 22 23 23 22 23 24 26 28 29 31 33 35 36 35 31 29 27 26 27 30 30 29 30 28 21 16 15 15 15 15 16 16 15 15 16 16 15 17 18 17 16 16 16 16 17 18 17 16 15 15 14 12 12 12 11 11 14 16 16 15 14 15 17 19 24 29 32 31 30 31 31 31 30 29 28 28 27 27 26 25
18 19 20 20 20 21 22 23 24 24 24 23 23 25 27 29 30 32 35 36 35 32 30 27 25 25 26 27 25 25 27 26 21 16 14 15 17 18 18 17 17 18 18 17 17 18 17 17 19 21 21 22 22 23 21 18 19 19 16 14 13 12 13 14 14 15 14 12 13 14 15 17 20 22 23 24 25 26 27 27 27 27 27 27 27 27 26
19 19 19 19 20 21 22 23 24 24 24 24 24 25 26 28 29 31 33 35 34 32 31 28 26 24 24 24 23 22 23 24 23 21 18 15 15 17 18 18 18 18 18 20 21 21 20 18 17 18 19 19 21 23 23 21 20 18 16 16 17 16 15 15 15 16 14 13 13 15 15 16 18 20 22 24 25 25 26 26 26 26 26 26 26 26 26
19 19 19 19 20 21 22 23 24 24 24 24 24 24 25 26 28 29 32 34 34 32 30 29 27 24 23 23 23 22 21 21 21 22 21 17 14 13 15 15 15 15 16 19 21 22 22 22 21 20 18 18 20 21 22 21 20 19 19 19 20 19 18 16 16 16 15 13 13 15 16 16 17 18 21 23 24 25 25 25 25 25 25 26 26 26 27
19 19 19 20 21 22 22 23 23 23 23 24 24 24 25 25 26 27 30 32 33 32 30 29 28 26 25 24 24 23 22 21 20 21 22 19 16 14 14 14 13 13 14 17 19 20 20 20 19 18 16 16 17 20 22 22 21 21 21 21 21 19 18 17 17 18 17 16 16 17 18 18 18 18 20 22 23 24 24 24 24 25 26 27 27 28 29
19 18 19 21 21 21 21 22 22 22 23 23 23 23 24 25 25 26 29 32 34 34 33 31 30 30 28 27 27 26 25 24 23 22 22 20 19 18 18 17 16 15 15 16 17 19 20 20 19 18 15 13 13 16 18 20 21 21 22 23 23 21 19 18 18 18 18 18 18 19 20 21 21 21 22 23 25 25 26 26 27 27 28 28 29 30 30
18 18 19 20 20 19 19 20 21 21 21 23 23 23 24 25 26 27 29 30 33 35 36 35 34 34 34 32 31 30 29 27 26 25 24 22 22 22 22 21 20 19 18 17 18 19 20 20 20 20 18 15 14 15 16 17 18 19 20 21 23 22 21 20 20 20 21 21 22 22 23 24 25 25 26 27 28 29 29 30 30 31 31 32 32 33 34
15 15 16 17 17 17 17 18 19 19 20 22 23 24 25 26 27 28 28 29 31 33 35 36 37 38 38 37 35 33 32 30 29 28 27 26 25 25 25 25 23 22 21 20 20 20 21 22 21 21 21 20 19 19 19 20 21 21 22 22 23 23 23 23 23 24 24 25 25 26 27 27 28 29 30 31 32 32 33 33 34 34 35 35 36 37 38
13 13 14 15 15 15 16 16 17 18 18 21 23 25 26 27 28 28 27 28 31 32 31 33 36 37 37 37 36 35 34 33 32 31 30 29 28 26 26 26 26 24 23 21 21 21 21 22 23 22 22 22 22 21 22 22 23 23 23 24 24 24 24 24 24 25 26 26 27 28 29 30 31 32 33 33 34 35 35 36 37 37 38 39 39 40 41
12 12 12 12 13 15 15 15 16 16 17 20 23 25 26 27 28 27 24 27 31 32 30 32 35 36 35 35 35 35 36 35 34 32 31 31 30 28 27 27 26 25 24 23 22 22 22 23 23 24 23 23 24 23 23 23 24 24 24 25 25 26 26 26 27 27 28 28 29 30 31 32 33 34 35 36 36 37 38 38 39 40 40 41 42 42 43
11 11 10 10 12 14 13 12 13 13 15 18 22 23 24 25 26 26 25 30 34 33 32 35 37 36 35 34 34 35 36 35 33 32 32 31 31 29 27 26 25 25 25 24 23 22 22 23 23 23 24 24 24 24 25 25 25 26 27 27 28 29 30 30 31 31 32 32 33 33 34 35 36 37 38 38 39 40 40 41 42 43 43 44 44 45 45
10 10 9 8 10 12 10 8 7 9 13 16 19 23 23 24 26 26 25 28 34 35 34 35 36 35 34 34 34 33 32 31 29 29 29 29 28 27 26 25 24 24 25 26 25 24 23 23 23 23 24 24 24 25 25 26 27 27 28 29 30 30 31 32 33 33 34 34 35 35 36 37 38 39 40 41 41 42 43 44 44 45 46 46 47 47 48
10 9 8 7 8 8 8 8 5 6 11 14 17 22 25 26 28 29 26 24 29 32 32 31 31 31 29 29 30 29 26 25 25 25 25 25 25 25 25 24 24 25 25 26 26 26 25 24 24 23 23 23 23 23 24 24 25 26 27 28 29 30 31 32 33 33 34 34 35 36 36 37 38 39 40 41 41 42 43 44 45 46 46 47 48 48 49
9 8 6 5 5 4 4 6 6 1 8 14 16 19 23 26 30 33 31 26 22 24 25 25 27 28 23 22 25 25 23 22 22 22 23 23 23 23 23 23 23 23 23 24 24 24 24 24 23 22 22 21 21 21 22 22 23 24 25 26 27 28 30 31 32 32 33 34 35 35 36 37 38 39 40 40 41 42 43 44 45 46 47 47 48 49 49
9 7 6 5 4 2 2 3 4 4 1 9 15 17 21 27 33 36 36 31 26 24 23 24 26 27 23 20 22 23 22 21 21 21 21 21 20 19 19 18 18 19 19 20 20 20 20 21 21 21 21 21 21 21 22 23 24 24 25 26 27 28 29 30 31 32 33 34 35 36 37 38 39 40 41 42 43 44 45 46 47 48 49 49 50 51 51
10 9 7 5 3 2 1 3 3 3 3 4 10 16 21 26 31 33 32 29 27 26 27 28 27 26 23 21 21 20 20 19 19 18 18 17 17 16 16 15 16 16 17 17 18 18 18 19 20 21 21 22 23 24 24 25 26 26 27 28 28 29 30 31 32 33 34 35 37 38 39 40 41 42 43 44 45 46 48 49 50 51 52 52 53 53 54
12 11 9 7 5 4 2 3 4 5 5 6 10 15 19 22 23 24 22 21 21 21 23 24 22 19 17 16 15 15 15 15 15 14 14 14 14 14 14 15 15 16 16 17 18 19 19 20 21 22 23 24 24 25 26 27 27 28 29 30 31 32 33 34 35 36 37 38 39 40 41 42 43 45 46 47 48 49 50 51 51 52 53 54 55 55 56
15 12 10 9 7 6 6 5 5 6 6 7 9 12 15 17 18 17 15 13 14 15 15 15 13 11 10 9 9 9 10 10 11 11 12 12 12 13 14 15 16 17 18 19 20 21 21 22 23 24 24 25 26 26 27 28 29 30 31 33 34 35 36 37 38 39 40 41 41 42 43 44 45 46 47 48 49 50 51 52 53 54 55 55 56 57 57
16 13 11 10 10 9 8 8 8 7 7 7 8 10 12 14 14 14 12 10 10 10 10 10 9 8 8 8 8 9 9 10 11 12 12 13 14 15 16 17 18 19 20 20 21 22 22 23 24 24 25 26 27 28 29 31 32 34 35 36 38 39 40 41 42 42 43 44 45 46 46 47 48 49 49 50 51 52 53 54 55 56 57 58 59 59 60
18 16 14 13 12 11 10 9 8 7 7 8 8 9 9 10 11 11 10 10 9 9 9 9 9 9 10 10 11 12 12 13 13 13 14 15 15 16 17 18 19 20 20 21 22 22 23 23 24 25 26 27 29 30 32 33 35 36 37 39 40 41 42 44 45 46 47 48 49 50 51 52 53 54 55 56 56 57 58 58 59 60 61 61 62 63 64
21 19 17 15 13 12 11 10 10 9 8 9 9 10 10 9 9 9 9 9 9 9 9 10 10 11 12 12 13 13 13 13 13 14 14 15 16 17 18 18 19 19 20 20 21 22 23 24 25 27 28 30 31 32 33 35 36 38 39 40 42 43 44 46 47 48 49 51 52 53 55 56 57 58 59 60 61 62 62 63 63 64 64 65 66 67 67
22 19 17 16 15 14 13 13 13 13 12 12 11 11 12 12 11 11 10 10 10 10 11 11 12 12 12 12 12 13 13 13 14 14 15 16 16 17 17 18 18 19 20 21 22 23 25 26 28 29 31 32 33 34 35 37 38 39 40 41 43 44 45 47 48 49 50 52 53 54 55 56 57 58 60 61 62 63 64 64 65 66 67 67 68 69 69
21 19 17 17 16 16 15 15 15 14 14 13 13 14 14 13 13 12 12 12 12 12 12 12 12 12 12 12 12 13 13 14 14 15 15 16 16 16 17 18 19 20 21 22 24 25 27 28 29 31 32 33 34 36 37 38 39 40 41 42 43 44 45 47 48 50 51 52 53 55 56 57 58 59 60 61 62 64 65 66 67 68 68 69 70 70 71
21 20 20 19 19 18 18 17 16 16 15 15 15 15 15 15 14 13 13 13 14 14 13 13 13 13 13 13 13 14 14 15 15 15 15 16 16 17 18 19 20 21 23 24 25 26 28 29 31 32 33 35 36 37 38 38 39 40 41 43 44 46 47 49 51 52 53 54 55 56 58 59 60 61 62 64 64 65 67 68 69 70 70 71 72 72 73
24 22 21 21 21 20 20 19 18 17 17 17 17 16 15 15 14 14 14 15 15 15 15 15 15 14 14 15 15 15 15 15 15 15 16 17 17 18 19 20 21 22 24 25 27 28 29 31 32 33 35 35 36 37 38 39 40 41 43 45 46 48 50 51 52 54 55 56 57 59 60 61 62 63 63 64 64 65 66 68 69 70 71 72 73 74 75
24 22 22 21 21 21 21 20 19 19 19 18 18 18 17 16 16 16 16 16 16 17 17 16 16 16 16 16 16 16 16 16 16 17 17 18 19 19 20 22 23 24 26 27 29 30 32 33 33 34 35 36 37 38 39 41 42 44 45 47 48 49 50 52 53 55 56 58 59 60 61 61 61 62 62 62 63 65 66 67 68 69 70 71 72 73 74
24 23 22 22 21 21 21 21 20 20 20 19 19 19 19 19 18 18 18 18 18 18 18 17 17 17 17 17 17 17 16 17 17 18 18 19 20 21 22 23 25 26 28 29 31 32 33 33 34 35 36 38 39 40 41 43 45 46 47 48 49 50 51 53 55 56 58 59 60 60 60 59 58 58 59 60 61 62 63 63 62 62 61 61 62 64 65
25 24 23 22 22 22 21 21 20 20 20 20 20 20 20 20 20 20 20 19 19 19 19 18 18 18 18 18 17 17 17 18 18 19 20 20 21 23 24 25 27 28 30 31 32 33 33 34 36 37 38 40 41 42 44 45 46 47 48 48 50 51 53 54 56 57 58 59 58 58 56 55 54 55 56 57 57 58 57 55 53 52 52 52 52 52 54
25 25 24 23 22 22 21 21 21 21 21 20 21 21 21 21 22 22 21 21 20 20 20 20 19 19 19 18 18 18 18 19 20 21 22 23 24 24 25 27 28 30 31 32 33 33 34 35 37 38 40 41 42 44 45 46 47 48 49 50 50 52 53 54 55 56 56 56 55 54 52 51 52 53 53 54 53 53 51 49 48 48 49 49 49 48 48
26 25 24 24 23 22 22 22 22 22 21 21 21 22 22 22 23 23 23 22 22 22 22 21 20 20 20 19 19 20 20 21 22 23 24 24 25 26 27 29 30 31 32 32 33 34 35 37 38 39 41 42 43 45 46 47 48 49 49 50 51 52 53 54 54 54 54 53 51 50 49 50 50 51 52 51 50 49 47 46 46 47 49 49 49 48 46
26 25 25 24 24 23 23 22 22 22 22 22 22 22 22 23 23 24 24 24 24 23 23 22 22 21 21 21 21 21 22 23 24 24 25 25 26 27 29 30 31 32 32 33 34 35 36 38 39 40 41 43 44 45 46 47 48 48 49 49 50 51 52 52 53 52 51 50 48 48 48 49 50 50 50 49 48 46 45 45 46 47 48 49 49 47 45
25 25 24 23 23 23 23 23 22 22 22 22 23 23 24 24 25 25 25 25 25 24 24 23 23 22 22 22 22 23 23 24 25 25 25 26 28 29 30 31 32 32 33 34 35 36 37 39 40 41 42 43 45 46 46 47 47 48 48 49 50 50 51 51 51 51 50 48 47 47 47 48 48 49 49 49 47 46 46 47 47 48 48 48 47 45 43
23 23 23 23 22 22 23 22 22 21 22 23 24 25 25 25 25 25 26 26 25 25 24 24 23 23 23 23 23 24 24 25 25 26 27 28 29 30 30 31 32 33 34 35 36 37 38 39 40 42 43 44 45 46 46 46 47 47 48 49 49 49 49 49 49 49 48 47 46 46 47 47 48 48 49 49 48 48 47 47 47 46 45 45 44 43 40
23 23 23 22 22 22 22 22 22 22 23 24 25 25 25 25 25 26 26 26 26 25 25 24 24 24 24 24 24 24 25 26 26 27 28 29 29 30 31 32 33 34 34 35 36 37 38 40 41 42 43 44 45 45 45 45 46 46 47 47 48 47 47 47 47 47 47 46 46 46 46 46 46 47 48 48 48 48 46 44 43 41 40 40 41 39 37
22 22 22 22 22 21 21 22 23 23 24 23 23 24 24 25 26 26 26 26 25 25 25 25 25 24 24 24 25 25 26 27 28 28 28 29 30 31 32 33 33 34 35 35 36 38 39 40 41 42 43 43 43 43 43 44 45 45 45 46 46 46 46 45 45 45 45 45 45 45 44 44 44 45 46 46 46 44 42 40 38 36 36 37 37 36 34
22 22 22 21 21 21 21 22 22 22 22 22 22 23 24 25 25 26 25 25 25 25 25 25 25 24 24 25 26 26 27 28 28 28 28 29 31 32 32 33 33 34 35 36 37 38 39 40 41 42 42 42 42 42 42 43 43 44 44 44 44 44 44 44 44 44 44 44 43 43 42 42 42 43 44 44 43 41 38 36 34 33 32 33 34 32 31
21 21 21 20 20 21 21 22 21 21 21 22 23 24 25 25 25 25 25 25 25 25 25 25 25 25 25 26 27 27 28 28 28 28 29 31 32 32 33 33 34 34 35 36 37 38 39 39 40 40 40 40 40 41 41 42 42 42 43 43 43 43 43 43 43 43 43 42 41 40 40 40 41 42 42 42 40 38 35 33 32 32 31 31 31 30 28
19 19 19 20 20 20 21 21 21 21 22 22 23 24 25 25 25 25 25 25 25 25 26 26 26 26 27 27 28 28 28 28 28 29 30 32 33 33 33 34 34 35 35 36 37 38 38 39 39 39 39 39 40 40 40 41 41 41 41 41 42 42 42 42 42 42 41 40 38 38 38 38 38 39 39 38 37 35 33 32 31 30 30 30 30 29 27
18 18 18 18 18 19 19 20 20 21 21 22 23 24 24 25 25 25 25 25 26 26 27 27 27 28 28 28 29 29 29 28 29 30 32 32 33 33 34 34 34 34 35 36 37 38 38 38 38 38 38 38 39 39 39 39 39 39 40 40 41 41 41 41 41 40 39 37 35 35 35 35 36 36 35 35 34 32 31 30 30 29 29 29 29 29 28
Wind_Direction
236 234 236 238 240 242 242 244 244 242 238 235 233 231 231 232 227 221 221 223 222 229 246 257 258 256 261 262 253 264 301 256 213 208 209 210 211 209 207 207 208 208 209 211 212 211 211 212 214 217 221 222 223 224 224 227 229 230 231 230 229 230 231 231 232 232 233 234 237 240 241 240 239 239 239 241 244 245 246 247 248 249 251 251 253 254 253
241 239 238 238 240 242 243 243 245 243 240 238 238 237 234 233 232 227 222 219 216 218 228 247 256 251 256 265 257 255 292 282 221 205 209 212 213 210 206 204 207 208 210 212 215 215 216 216 217 220 223 225 228 229 229 229 230 232 233 232 231 232 232 233 233 233 232 232 234 237 239 240 240 240 240 242 244 246 247 248 248 248 250 252 253 255 256
245 242 242 241 241 241 242 243 244 245 243 240 240 240 240 240 238 233 224 215 213 217 220 232 250 247 244 259 260 253 266 286 246 199 198 203 204 203 201 201 204 207 210 213 215 218 219 220 221 224 227 231 234 236 237 236 234 234 236 236 235 234 235 236 237 238 238 236 236 237 238 239 239 239 240 241 243 246 247 249 250 251 252 253 254 255 256
250 245 244 244 242 242 242 242 243 244 244 243 242 242 244 245 244 237 225 215 214 218 216 221 239 244 235 243 257 253 252 264 273 220 184 180 185 191 196 201 206 209 213 216 217 219 220 221 224 227 230 234 237 240 243 243 240 238 238 239 239 238 238 238 240 243 244 243 243 243 241 242 241 239 239 241 243 245 248 250 251 253 254 253 252 251 252
257 248 244 245 245 243 243 243 243 243 244 244 244 245 247 247 245 239 226 216 215 219 217 218 228 236 236 233 233 240 246 247 251 252 192 167 172 182 191 198 203 207 209 213 216 217 218 220 222 226 229 234 238 241 243 246 245 242 239 239 242 243 243 241 240 241 242 242 245 248 246 245 248 247 244 243 245 245 246 247 247 248 250 252 253 253 252
261 249 243 244 246 246 245 244 243 243 243 243 244 246 249 250 248 241 228 217 215 218 218 220 225 235 246 242 220 214 235 244 239 235 226 184 166 172 184 192 197 199 197 199 206 211 214 218 222 226 230 233 237 240 242 244 246 246 242 239 240 244 246 245 244 243 243 241 241 246 249 246 247 251 250 246 245 243 241 241 240 237 239 245 251 252 251
262 250 242 241 244 246 248 247 246 244 243 243 243 244 248 252 251 246 233 220 217 218 219 222 228 236 248 248 227 207 217 232 235 230 229 221 196 180 179 181 184 187 187 185 190 199 206 213 218 223 228 230 234 239 241 243 245 246 243 239 238 241 244 245 246 246 245 242 239 244 251 246 239 241 246 246 246 244 242 242 242 238 235 239 245 248 250
262 248 241 239 240 243 247 249 249 247 246 245 244 244 247 250 251 250 240 228 223 222 222 225 229 234 242 246 241 231 226 228 230 227 222 220 216 208 202 197 193 192 191 189 188 191 198 206 212 217 221 224 229 234 240 244 245 245 244 241 239 241 242 242 243 243 242 241 240 243 249 245 236 234 236 238 241 242 241 241 244 243 241 242 246 248 249
260 248 242 239 238 240 244 246 247 247 247 246 245 245 246 247 249 250 246 237 230 227 226 228 230 234 238 242 248 250 244 232 224 220 214 210 210 209 208 211 214 213 208 203 201 202 204 208 212 215 217 222 228 234 239 242 245 246 245 243 242 243 243 241 240 240 239 239 238 239 243 242 237 235 233 232 233 235 236 238 240 241 242 245 247 247 248
257 251 247 243 241 242 242 243 243 244 245 244 244 244 244 244 245 248 249 244 236 232 230 230 232 235 237 241 246 251 250 240 224 214 209 207 205 203 205 211 215 216 217 215 213 215 216 216 218 219 221 225 230 236 241 243 247 252 252 248 245 244 244 243 241 238 236 237 237 238 239 239 237 238 236 233 232 232 232 235 238 238 240 244 247 248 250
254 251 250 246 243 243 243 243 242 241 241 241 241 241 241 241 242 246 248 247 241 237 235 234 235 236 239 243 246 249 253 247 228 212 202 202 204 205 210 219 224 225 227 228 226 225 223 221 220 218 220 227 234 242 248 247 248 256 259 254 248 244 242 242 240 236 234 235 238 239 241 241 239 239 239 236 236 236 237 238 240 241 243 246 248 250 251
249 248 248 247 245 244 244 245 244 240 239 238 237 238 238 237 238 242 246 247 244 240 239 237 237 237 241 247 249 251 256 250 230 220 215 201 205 216 225 232 239 239 238 241 242 240 236 234 235 235 236 242 247 250 251 248 248 257 265 262 256 248 240 235 234 234 234 236 239 240 242 242 241 240 237 236 237 239 240 241 243 245 249 252 253 253 253
250 247 247 247 247 247 247 248 247 244 240 237 234 235 235 234 235 237 241 244 245 243 242 241 239 238 243 249 252 251 253 248 231 228 230 223 219 227 235 243 250 249 249 251 251 251 247 239 237 237 238 242 246 249 252 252 248 252 265 265 258 253 240 230 229 232 235 237 238 239 238 239 239 238 236 238 241 241 241 242 244 246 250 254 257 258 256
253 249 249 248 249 250 250 250 250 248 244 239 235 234 233 232 232 233 235 238 243 245 246 246 242 240 244 251 256 253 249 247 244 240 239 241 241 239 239 246 251 254 258 257 253 252 251 245 240 240 241 244 250 256 260 259 255 258 273 280 271 255 234 221 219 225 232 235 235 234 232 232 234 236 238 245 250 248 244 243 244 245 248 252 256 258 257
257 252 249 249 249 250 250 250 251 249 246 242 237 234 233 231 230 230 230 233 238 243 247 248 245 241 246 254 259 257 252 253 258 259 252 249 249 247 245 247 250 256 259 257 252 250 249 247 244 243 245 250 256 259 258 256 258 264 267 264 257 243 226 218 217 223 231 234 228 225 223 222 225 231 237 244 250 250 247 244 242 243 246 250 255 259 260
259 254 250 248 248 249 250 250 251 249 246 243 238 234 232 231 230 228 227 228 234 239 244 247 246 242 245 254 261 261 260 260 260 259 257 253 248 247 246 245 248 254 255 254 253 251 251 253 252 249 252 257 260 258 256 255 256 257 249 240 236 231 223 222 223 223 225 225 222 223 227 226 225 229 234 238 242 246 247 247 246 246 249 252 256 260 262
260 255 252 250 248 248 250 251 252 250 246 243 239 233 230 229 230 229 226 225 229 236 240 243 245 242 243 252 260 261 261 261 257 255 255 255 249 241 237 239 246 252 251 252 255 256 256 257 258 258 259 258 256 253 253 253 250 243 237 233 231 227 225 225 225 226 231 235 230 231 236 237 234 235 238 241 244 246 247 249 250 251 252 253 255 258 260
261 255 253 252 250 251 252 254 255 253 247 242 237 232 228 225 225 228 228 226 227 232 236 238 240 241 241 247 255 259 258 257 252 249 251 254 253 246 239 240 252 261 258 255 257 258 257 254 254 255 253 246 244 247 248 248 243 235 229 227 227 231 234 236 236 238 243 244 239 235 239 243 243 242 243 245 248 251 254 256 257 256 255 254 255 257 260
261 257 253 253 254 256 258 260 259 255 248 241 235 230 226 223 220 222 226 228 227 227 230 234 237 239 241 244 249 252 253 252 250 248 249 252 255 256 253 253 260 269 270 264 260 260 260 257 256 256 251 239 234 237 241 243 243 238 233 232 237 243 245 244 244 245 246 246 245 243 243 246 248 250 250 251 253 256 259 261 261 260 259 258 258 260 261
263 259 256 256 259 261 264 266 263 256 246 237 230 225 221 219 217 217 222 228 228 224 224 228 234 237 240 242 244 245 247 248 247 247 249 252 256 259 261 261 262 267 270 266 260 257 257 256 255 253 250 245 237 233 236 241 244 244 242 241 245 249 251 250 250 251 251 252 253 253 252 252 252 253 253 254 256 257 258 259 260 261 261 261 262 263 264
266 262 260 262 266 267 267 267 265 258 245 233 225 220 217 215 213 213 218 225 227 224 222 224 228 232 235 238 239 240 242 244 245 246 248 251 254 256 257 258 260 264 265 262 257 254 252 251 250 248 247 246 243 239 240 242 245 248 249 249 249 251 252 252 252 252 253 254 255 256 258 258 258 258 258 258 259 259 259 260 261 262 262 263 263 263 264
268 264 267 270 269 267 266 266 265 257 242 229 222 216 214 213 211 211 214 218 221 222 222 222 223 225 228 232 235 237 239 240 242 244 247 249 251 253 252 252 255 260 261 258 255 251 249 246 245 245 244 244 243 241 240 241 243 245 247 249 251 252 253 253 253 253 254 254 255 257 259 260 261 262 263 263 263 263 264 264 264 264 265 265 265 266 266
267 265 269 271 267 265 268 271 269 256 237 226 222 217 215 215 212 211 214 217 219 220 221 220 220 220 223 226 229 231 233 235 237 241 246 249 251 251 248 245 249 254 257 255 251 248 246 244 243 243 244 243 243 243 243 243 244 246 248 251 253 255 257 258 258 259 259 259 259 260 260 261 263 264 265 265 266 267 267 268 268 268 267 267 267 267 268
266 265 266 268 268 270 276 282 273 252 231 223 219 215 215 214 209 210 214 213 212 213 214 215 217 217 219 221 222 223 225 228 233 239 243 245 247 246 243 241 243 247 249 250 249 247 246 246 245 245 245 245 245 247 248 248 248 250 251 253 255 257 259 261 262 263 264 264 265 265 266 266 266 267 267 268 268 269 269 270 270 271 271 271 271 271 271
262 261 261 264 271 280 294 305 283 241 226 223 217 214 213 208 204 208 207 194 189 193 201 206 209 210 211 213 215 216 219 224 230 235 237 239 240 240 239 240 241 242 243 244 246 248 249 249 250 250 251 252 252 253 254 255 256 257 258 259 261 262 263 265 266 267 268 268 269 270 270 270 270 270 271 271 271 271 271 271 272 272 272 273 273 274 274
254 254 256 262 275 290 312 328 315 225 213 220 221 217 213 207 204 208 204 184 173 177 185 192 197 199 201 204 204 206 213 221 226 230 232 233 234 234 235 236 237 237 238 240 244 249 253 255 257 258 258 259 260 260 260 261 261 262 263 264 265 266 267 268 269 269 269 270 270 270 270 270 270 271 271 271 272 272 272 272 272 272 273 273 274 274 275
246 248 250 261 280 302 328 340 343 283 204 215 226 228 222 215 210 207 206 202 193 186 186 191 193 190 190 193 195 198 205 214 218 222 225 227 229 230 231 232 234 237 239 242 245 249 253 256 259 261 262 262 263 263 264 264 263 263 263 263 264 265 265 266 267 268 268 268 269 269 269 269 270 270 270 271 271 272 272 272 272 272 272 273 273 273 274
234 235 238 249 273 314 13 20 6 6 214 213 220 221 216 212 209 205 205 211 215 210 205 203 198 192 189 191 193 196 202 206 210 214 218 221 224 227 229 232 235 238 241 243 245 247 250 253 256 259 262 264 266 267 269 269 269 269 269 268 268 268 268 269 269 270 270 271 271 272 272 272 272 272 272 272 272 273 273 273 273 273 274 274 274 274 274
225 223 222 225 238 274 30 72 79 64 76 159 184 184 181 185 190 194 199 206 211 212 211 207 201 196 196 195 194 196 200 203 207 211 213 216 220 223 225 228 232 236 239 242 246 249 253 256 260 263 265 267 269 271 273 274 275 275 275 275 275 274 274 273 273 273 273 273 273 273 274 274 274 274 274 274 274 274 275 275 275 275 275 275 275 275 275
223 220 217 212 206 204 185 125 121 126 123 129 145 153 154 157 164 173 182 189 193 198 202 201 194 189 189 189 189 192 196 201 205 209 212 215 218 222 226 230 234 239 244 248 252 256 259 262 265 268 270 272 274 275 276 277 277 277 277 277 277 277 276 276 276 275 275 274 273 273 273 273 273 273 274 274 274 274 275 275 275 275 276 275 275 275 275
221 218 216 212 203 195 193 180 157 148 147 138 132 134 137 138 141 146 152 160 166 171 175 175 172 168 170 177 184 191 196 203 210 215 219 223 227 231 237 241 245 249 252 255 259 262 264 266 269 270 272 274 275 275 276 276 276 277 277 277 277 277 277 277 277 277 276 276 275 275 274 274 273 273 273 273 273 273 273 274 274 274 275 275 275 275 275
223 220 221 219 210 203 202 198 185 169 158 147 134 131 132 133 133 136 140 147 156 161 161 162 165 170 177 187 198 207 213 219 224 229 234 238 241 245 249 251 255 257 259 261 264 266 267 268 269 271 272 273 274 275 276 277 278 279 279 279 279 279 279 279 279 279 279 278 278 278 278 277 277 276 276 276 276 275 275 275 275 275 275 275 275 275 275
226 225 224 224 219 213 211 210 202 189 175 165 156 150 149 148 148 151 159 168 175 179 181 182 186 194 202 208 213 218 223 226 230 235 240 244 247 251 253 255 257 259 260 262 264 265 267 268 270 271 273 274 275 277 278 278 280 280 281 282 282 282 283 283 283 283 283 282 282 282 282 282 282 281 281 280 279 279 278 278 277 277 277 276 276 276 275
226 227 226 226 225 222 220 217 212 206 201 195 186 179 180 184 185 186 190 194 197 199 199 200 203 207 211 214 217 221 225 228 232 236 241 245 248 251 253 255 257 258 260 262 264 266 269 271 272 274 275 276 277 279 280 281 282 282 283 284 284 285 285 285 285 285 284 284 284 284 284 283 283 283 283 283 282 282 281 280 280 279 278 277 277 276 276
224 226 227 228 228 227 226 223 219 214 211 209 207 205 205 208 209 211 212 211 210 209 208 208 210 212 214 217 221 224 228 232 236 239 242 245 247 250 252 255 259 261 265 268 271 273 275 277 278 280 281 282 283 285 285 286 287 287 287 288 288 287 287 287 287 287 287 286 286 286 285 285 285 285 284 284 284 283 283 282 282 281 280 279 278 277 276
222 222 224 225 226 227 229 230 231 229 225 221 219 219 220 220 220 220 219 217 214 214 214 215 216 217 221 225 230 234 237 239 241 243 245 247 250 253 257 261 265 268 272 274 276 279 281 283 285 286 287 288 289 290 290 290 291 291 291 291 290 290 290 290 290 290 290 289 289 289 288 288 288 288 287 287 286 286 285 284 283 282 281 280 279 278 277
219 220 222 224 226 229 231 234 237 239 238 235 231 227 225 224 223 221 220 218 218 218 219 220 222 225 230 235 239 241 243 244 245 246 249 252 256 259 263 267 270 273 276 279 282 284 286 288 289 290 290 291 291 291 291 291 291 292 292 292 293 293 293 293 293 293 292 292 291 291 291 291 291 291 291 290 290 289 288 287 286 285 283 282 280 279 277
217 220 224 227 229 232 234 237 238 241 242 241 239 235 232 229 227 224 222 221 222 222 223 224 228 232 237 241 243 244 245 246 248 251 254 257 261 265 270 274 278 281 284 286 289 290 291 291 291 291 291 291 291 291 292 292 293 294 294 294 294 295 294 294 294 294 294 294 294 294 294 294 293 293 292 291 291 290 289 288 287 286 284 283 281 279 277
216 219 224 228 230 233 236 237 238 240 241 242 242 242 240 237 234 231 228 226 225 225 226 228 232 238 242 245 246 247 247 249 251 255 260 264 269 274 279 283 286 289 291 292 293 293 292 292 291 291 292 292 293 294 294 295 295 295 295 295 295 295 296 296 296 296 296 297 297 297 296 296 295 294 293 293 293 293 292 292 290 288 285 283 280 277 274
214 218 222 225 228 232 234 236 238 239 240 241 242 243 243 241 239 237 235 233 231 231 232 235 239 243 246 248 249 249 250 253 256 261 267 273 277 281 284 288 291 293 294 294 294 293 293 293 294 294 295 296 297 297 297 297 296 296 296 296 297 298 298 299 299 299 299 299 299 298 297 296 295 295 296 297 299 300 300 299 297 294 291 288 284 279 275
213 217 221 224 227 230 233 236 238 239 240 241 241 242 242 241 239 238 237 236 236 236 238 241 244 247 249 250 250 251 254 258 263 269 274 277 280 283 287 290 293 295 295 295 295 295 295 296 297 298 298 298 298 298 298 298 297 297 298 298 299 300 300 300 301 301 301 300 299 298 297 296 296 298 300 302 304 306 306 305 303 302 301 299 295 290 285
214 218 221 224 226 229 232 234 237 238 239 240 241 240 240 239 238 237 237 237 238 240 242 244 247 249 250 250 251 253 258 264 270 274 276 278 281 286 290 294 295 296 296 296 296 296 297 298 298 299 299 299 299 299 299 299 299 299 299 300 301 301 301 302 302 302 301 300 298 297 296 296 298 300 302 304 306 307 307 306 305 306 306 305 303 299 294
215 219 222 224 226 228 231 233 236 239 240 240 240 239 238 237 237 237 237 238 239 241 243 245 246 247 247 248 251 255 261 267 271 274 276 279 284 289 293 295 296 296 296 296 296 296 296 297 298 298 299 299 300 300 300 300 300 300 301 301 302 302 303 303 303 302 301 299 296 294 294 296 299 301 302 303 305 305 304 302 303 304 306 306 304 301 298
217 220 223 226 227 228 231 234 237 239 240 239 238 237 236 235 235 236 237 238 240 241 242 243 243 243 244 247 252 257 263 268 271 274 278 283 287 291 293 295 296 296 296 296 295 295 296 297 298 299 300 301 301 302 302 302 301 302 302 303 304 304 304 304 303 302 300 297 294 293 294 297 299 301 302 303 303 302 301 300 300 302 304 304 302 300 297
220 223 226 228 229 231 233 236 237 237 237 236 235 234 234 233 234 235 236 237 238 240 240 241 241 242 244 249 254 260 265 269 273 278 282 285 288 291 293 295 296 296 296 296 295 296 297 299 300 301 302 303 304 304 303 302 302 303 304 305 306 306 306 305 304 302 300 296 293 293 294 297 299 301 301 301 301 300 299 299 300 301 303 303 301 299 296
222 226 229 230 232 234 236 237 236 234 233 231 231 232 232 232 233 234 235 236 238 239 239 239 241 243 248 253 258 263 268 273 277 280 282 285 288 292 295 296 297 297 297 297 297 299 301 302 303 304 304 305 305 304 304 304 304 306 307 307 307 307 306 306 304 302 299 296 294 293 295 297 299 300 301 300 300 299 299 299 300 301 302 303 302 298 293
224 229 232 234 235 236 236 236 235 233 231 230 230 230 231 232 233 234 235 237 238 239 239 241 244 247 252 257 262 267 272 276 279 281 283 286 290 294 296 297 298 298 298 299 301 302 303 304 304 305 306 306 305 305 305 306 307 308 308 308 308 307 307 306 305 303 300 297 295 295 295 297 299 301 301 300 300 300 300 301 300 300 301 305 305 298 290
227 230 232 233 234 234 234 234 233 233 232 232 232 232 232 233 234 235 237 238 239 239 241 244 248 252 256 261 266 271 274 278 280 283 286 290 294 296 297 298 299 299 301 302 303 304 305 305 306 307 307 306 306 306 307 308 308 309 309 309 308 308 308 308 307 305 302 299 297 296 297 298 300 301 301 301 301 301 301 300 299 298 302 309 309 301 290
227 229 231 232 234 234 233 233 232 232 232 233 233 234 234 235 236 237 238 239 240 242 245 248 252 256 260 265 270 273 277 280 283 287 290 293 295 296 298 299 300 301 302 303 304 305 306 307 307 307 307 307 307 307 308 309 309 310 309 309 309 309 310 310 309 307 305 302 299 298 298 299 301 302 302 302 302 301 299 298 296 296 301 309 312 306 295
227 228 230 231 232 233 233 233 233 233 233 234 235 236 237 238 238 238 239 241 243 246 249 252 255 259 264 269 273 278 281 284 287 289 291 294 295 297 298 299 300 301 303 305 305 306 306 307 307 306 306 307 307 308 309 310 310 310 310 310 311 311 311 311 311 309 307 304 301 300 300 301 302 303 303 303 302 301 298 296 294 294 297 304 310 310 302
227 228 229 231 232 233 234 235 236 236 237 238 238 238 239 239 239 241 243 245 248 250 253 255 259 263 268 273 278 282 285 286 288 289 291 293 295 296 298 299 300 302 304 305 305 306 306 306 306 306 306 307 308 309 310 310 311 311 311 312 312 312 312 312 312 310 308 305 302 301 301 301 302 303 303 304 303 300 297 294 293 293 294 298 304 308 307
229 231 233 234 236 237 238 238 238 238 239 240 240 241 242 243 245 246 249 251 252 254 257 260 264 268 273 277 281 283 285 285 287 289 291 293 295 297 298 299 300 302 303 304 305 305 306 306 306 306 307 308 308 309 310 311 312 312 313 313 313 314 314 314 314 313 310 306 303 302 302 302 303 304 305 305 304 300 296 293 292 292 292 293 296 300 303
Height
5817 5818 5820 5821 5823 5825 5826 5827 5829 5830 5832 5833 5834 5836 5838 5840 5842 5844 5844 5845 5845 5846 5846 5845 5846 5847 5848 5848 5849 5850 5851 5850 5851 5852 5854 5857 5859 5861 5864 5867 5869 5872 5875 5878 5881 5883 5886 5888 5890 5893 5895 5896 5898 5900 5901 5902 5904 5905 5906 5908 5909 5911 5912 5914 5914 5915 5916 5917 5919 5920 5921 5922 5924 5925 5926 5927 5927 5928 5929 5929 5929 5930 5930 5931 5931 5932 5932
5815 5816 5817 5818 5820 5822 5823 5825 5826 5828 5829 5830 5832 5834 5836 5838 5840 5842 5843 5844 5844 5844 5845 5845 5845 5846 5847 5847 5848 5850 5850 5850 5850 5850 5852 5853 5855 5857 5860 5863 5866 5870 5873 5876 5878 5881 5883 5885 5888 5890 5892 5894 5896 5897 5899 5900 5901 5902 5904 5905 5907 5908 5909 5910 5910 5911 5912 5913 5914 5916 5917 5919 5920 5921 5922 5923 5924 5925 5925 5926 5926 5927 5928 5929 5929 5929 5930
5813 5813 5814 5815 5817 5818 5820 5822 5823 5825 5827 5828 5829 5831 5833 5835 5838 5840 5841 5842 5843 5843 5843 5844 5844 5845 5846 5847 5848 5849 5850 5850 5850 5850 5850 5850 5851 5854 5858 5861 5864 5867 5870 5873 5876 5878 5880 5883 5885 5887 5889 5891 5892 5894 5895 5897 5899 5900 5901 5902 5904 5905 5906 5907 5907 5908 5909 5910 5911 5913 5914 5915 5916 5917 5918 5919 5920 5921 5922 5923 5923 5924 5925 5926 5926 5926 5926
5810 5811 5811 5812 5813 5814 5816 5818 5820 5822 5824 5826 5827 5828 5830 5832 5835 5837 5839 5840 5841 5841 5842 5843 5843 5843 5844 5846 5847 5849 5850 5849 5850 5850 5850 5850 5851 5854 5858 5861 5863 5865 5867 5870 5873 5875 5877 5880 5882 5884 5885 5887 5889 5890 5892 5893 5895 5897 5898 5899 5901 5902 5903 5905 5906 5906 5907 5908 5910 5911 5912 5912 5913 5914 5915 5916 5918 5918 5919 5920 5921 5921 5922 5922 5922 5923 5923
5807 5807 5808 5809 5809 5811 5813 5815 5817 5819 5821 5823 5824 5826 5828 5829 5832 5834 5836 5838 5839 5840 5841 5841 5842 5842 5844 5845 5846 5849 5850 5849 5850 5851 5852 5852 5852 5854 5857 5859 5861 5862 5864 5866 5868 5871 5873 5876 5878 5880 5881 5883 5885 5887 5888 5890 5892 5893 5895 5896 5896 5897 5900 5903 5904 5903 5903 5904 5906 5908 5909 5910 5911 5912 5913 5915 5916 5916 5916 5916 5917 5918 5918 5919 5919 5920 5921
5804 5804 5805 5805 5806 5808 5810 5811 5813 5816 5818 5820 5822 5824 5825 5827 5829 5832 5834 5835 5837 5838 5839 5840 5840 5840 5841 5841 5843 5847 5849 5849 5849 5850 5852 5853 5853 5854 5856 5857 5858 5860 5861 5862 5864 5867 5869 5872 5874 5876 5878 5880 5882 5883 5885 5887 5888 5889 5890 5892 5893 5894 5896 5899 5900 5900 5899 5900 5903 5905 5907 5908 5909 5910 5912 5913 5912 5912 5912 5912 5913 5913 5913 5913 5915 5916 5917
5800 5801 5801 5802 5804 5805 5807 5808 5810 5812 5814 5816 5819 5821 5823 5824 5827 5829 5831 5833 5834 5836 5837 5838 5838 5838 5838 5839 5841 5844 5846 5847 5848 5849 5850 5852 5853 5854 5855 5856 5857 5859 5860 5861 5862 5864 5867 5870 5871 5873 5875 5877 5879 5880 5882 5883 5884 5884 5886 5887 5889 5890 5892 5893 5895 5896 5896 5897 5899 5901 5903 5905 5905 5906 5908 5909 5909 5909 5910 5909 5910 5911 5910 5910 5911 5913 5914
5797 5798 5799 5800 5802 5803 5804 5805 5806 5808 5811 5813 5816 5818 5820 5822 5824 5826 5829 5831 5832 5834 5835 5836 5836 5837 5838 5839 5840 5841 5842 5845 5847 5848 5849 5850 5851 5852 5853 5854 5855 5857 5859 5860 5861 5863 5866 5868 5869 5871 5873 5874 5876 5878 5879 5880 5880 5881 5882 5882 5884 5885 5886 5888 5890 5890 5892 5893 5894 5896 5898 5900 5900 5901 5903 5904 5904 5906 5907 5906 5906 5908 5909 5909 5909 5910 5911
5795 5796 5797 5798 5800 5801 5802 5802 5803 5805 5807 5810 5812 5815 5817 5820 5822 5823 5825 5827 5829 5831 5832 5833 5835 5836 5837 5838 5838 5839 5840 5842 5845 5846 5846 5847 5848 5848 5850 5851 5853 5855 5857 5858 5860 5862 5864 5866 5867 5869 5870 5872 5873 5874 5876 5876 5876 5877 5877 5878 5879 5880 5881 5883 5884 5885 5888 5889 5889 5891 5893 5894 5895 5896 5897 5899 5900 5901 5901 5901 5902 5904 5905 5906 5906 5907 5908
5794 5794 5795 5796 5798 5799 5799 5800 5801 5802 5804 5806 5809 5811 5814 5817 5819 5820 5822 5824 5826 5828 5830 5831 5832 5834 5835 5836 5836 5836 5837 5839 5843 5844 5845 5845 5845 5845 5847 5850 5852 5853 5855 5857 5859 5861 5863 5864 5865 5866 5867 5868 5869 5871 5872 5872 5873 5873 5873 5873 5874 5875 5876 5876 5877 5880 5883 5883 5884 5886 5888 5889 5890 5891 5892 5894 5895 5896 5896 5896 5898 5900 5901 5902 5903 5904 5904
5792 5792 5793 5794 5795 5796 5797 5798 5799 5800 5802 5803 5805 5808 5810 5813 5816 5817 5818 5821 5823 5825 5826 5828 5829 5831 5832 5833 5833 5834 5835 5836 5839 5840 5841 5841 5842 5843 5845 5848 5850 5852 5854 5856 5857 5859 5861 5862 5862 5863 5864 5865 5866 5867 5868 5869 5869 5869 5869 5870 5870 5870 5870 5870 5871 5873 5876 5877 5879 5882 5884 5884 5885 5887 5889 5890 5891 5892 5892 5892 5894 5896 5897 5899 5900 5900 5901
5790 5790 5791 5792 5793 5794 5795 5795 5796 5798 5799 5801 5803 5805 5806 5809 5812 5813 5815 5817 5820 5822 5823 5825 5827 5829 5829 5830 5832 5832 5833 5834 5835 5837 5838 5839 5840 5842 5844 5846 5848 5850 5852 5854 5856 5857 5859 5860 5860 5861 5862 5863 5863 5864 5865 5866 5867 5866 5866 5867 5867 5866 5865 5865 5866 5868 5870 5873 5875 5877 5879 5880 5881 5882 5883 5885 5886 5888 5888 5889 5890 5893 5894 5896 5896 5896 5896
5788 5788 5788 5789 5790 5791 5792 5793 5793 5795 5796 5798 5799 5800 5802 5805 5808 5810 5812 5814 5817 5819 5821 5822 5825 5826 5827 5828 5829 5830 5832 5833 5833 5834 5836 5838 5839 5841 5843 5845 5846 5848 5850 5851 5853 5854 5856 5858 5858 5858 5859 5860 5861 5862 5862 5863 5864 5864 5865 5866 5865 5864 5863 5863 5863 5865 5867 5869 5870 5872 5873 5874 5875 5877 5878 5881 5883 5884 5885 5885 5887 5890 5891 5892 5892 5892 5892
5786 5786 5786 5787 5788 5789 5790 5790 5790 5792 5793 5794 5795 5797 5798 5801 5804 5806 5809 5811 5814 5816 5818 5819 5822 5824 5825 5826 5827 5828 5830 5831 5831 5832 5833 5836 5838 5840 5842 5843 5845 5846 5847 5849 5850 5851 5853 5855 5856 5856 5857 5858 5858 5859 5860 5862 5862 5862 5864 5865 5864 5864 5863 5863 5863 5864 5864 5864 5865 5866 5867 5869 5870 5873 5876 5878 5880 5881 5881 5882 5884 5886 5887 5887 5887 5887 5887
5783 5784 5784 5785 5785 5786 5786 5787 5787 5788 5790 5791 5792 5794 5796 5798 5800 5803 5806 5809 5811 5814 5816 5817 5820 5822 5823 5824 5825 5827 5829 5830 5830 5831 5833 5834 5836 5838 5840 5841 5843 5844 5845 5846 5848 5849 5850 5851 5852 5852 5853 5855 5856 5857 5858 5860 5860 5860 5862 5863 5862 5861 5862 5862 5862 5862 5862 5862 5862 5863 5864 5866 5868 5871 5874 5875 5875 5876 5877 5878 5880 5881 5882 5882 5882 5882 5883
5780 5781 5781 5782 5782 5783 5783 5783 5784 5785 5786 5788 5789 5791 5793 5795 5797 5800 5803 5806 5809 5811 5813 5815 5817 5820 5821 5822 5823 5825 5827 5828 5829 5830 5832 5834 5835 5836 5838 5839 5841 5842 5843 5844 5845 5846 5847 5848 5848 5848 5850 5852 5852 5853 5854 5856 5857 5858 5859 5860 5859 5859 5859 5860 5860 5859 5860 5860 5861 5862 5863 5865 5867 5869 5870 5871 5872 5872 5873 5875 5876 5877 5878 5878 5878 5879 5879
5778 5778 5779 5779 5779 5779 5780 5780 5781 5782 5783 5784 5786 5787 5789 5791 5794 5797 5800 5803 5806 5809 5811 5813 5815 5818 5819 5820 5821 5823 5825 5827 5828 5829 5831 5833 5834 5835 5836 5837 5839 5840 5841 5841 5842 5843 5845 5846 5846 5847 5848 5849 5850 5850 5850 5852 5854 5855 5856 5857 5857 5857 5857 5858 5859 5858 5859 5859 5860 5861 5862 5863 5865 5866 5867 5869 5870 5870 5871 5872 5873 5874 5874 5875 5875 5875 5876
5775 5776 5776 5776 5776 5776 5777 5777 5778 5779 5780 5781 5782 5784 5785 5787 5790 5793 5796 5799 5803 5806 5808 5810 5813 5815 5817 5818 5819 5821 5823 5825 5826 5828 5829 5831 5832 5833 5834 5835 5837 5838 5839 5839 5840 5841 5842 5844 5845 5845 5846 5847 5847 5847 5847 5848 5850 5852 5853 5854 5854 5854 5855 5856 5857 5857 5857 5858 5859 5860 5860 5861 5862 5863 5865 5866 5867 5867 5868 5868 5869 5870 5871 5871 5871 5872 5872
5773 5773 5773 5773 5773 5774 5774 5774 5775 5776 5776 5778 5779 5780 5782 5783 5786 5789 5792 5795 5798 5801 5804 5807 5809 5812 5814 5816 5817 5818 5820 5822 5824 5825 5827 5828 5830 5831 5832 5833 5834 5835 5836 5837 5837 5838 5839 5840 5842 5843 5843 5844 5845 5845 5845 5845 5847 5848 5850 5851 5851 5852 5853 5854 5854 5855 5855 5856 5857 5858 5859 5859 5860 5860 5861 5862 5862 5863 5864 5864 5865 5866 5866 5867 5867 5868 5868
5770 5771 5770 5770 5771 5771 5771 5771 5771 5772 5773 5774 5775 5776 5778 5780 5782 5785 5788 5791 5794 5796 5798 5801 5804 5807 5809 5812 5814 5816 5817 5819 5821 5823 5824 5826 5827 5828 5829 5831 5832 5833 5834 5835 5835 5836 5836 5837 5839 5840 5841 5842 5843 5844 5844 5844 5845 5846 5847 5848 5849 5850 5850 5851 5852 5852 5852 5853 5854 5854 5855 5856 5857 5857 5858 5858 5858 5859 5859 5860 5860 5861 5861 5862 5862 5862 5863
5768 5768 5768 5768 5768 5769 5768 5768 5768 5768 5769 5770 5771 5772 5774 5776 5778 5781 5784 5787 5790 5792 5793 5795 5798 5801 5804 5807 5810 5812 5814 5816 5818 5820 5821 5823 5824 5826 5827 5828 5829 5831 5831 5832 5833 5834 5835 5835 5836 5837 5838 5839 5841 5842 5842 5843 5843 5844 5844 5845 5846 5847 5848 5848 5849 5850 5850 5850 5851 5851 5852 5852 5853 5854 5854 5854 5855 5855 5855 5855 5856 5856 5856 5857 5857 5857 5857
5766 5766 5766 5766 5766 5766 5765 5765 5764 5764 5765 5766 5767 5769 5771 5773 5775 5778 5781 5784 5787 5788 5789 5791 5794 5796 5799 5801 5805 5808 5810 5812 5814 5816 5818 5820 5821 5823 5824 5825 5826 5827 5828 5829 5830 5831 5832 5833 5834 5835 5836 5836 5837 5839 5840 5840 5841 5841 5842 5842 5843 5844 5844 5845 5846 5847 5847 5847 5848 5848 5848 5849 5849 5850 5850 5850 5850 5850 5850 5851 5851 5851 5851 5851 5852 5852 5852
5764 5764 5764 5764 5764 5763 5763 5762 5761 5761 5761 5762 5764 5766 5768 5770 5773 5776 5779 5782 5784 5785 5787 5789 5791 5793 5795 5797 5800 5803 5806 5808 5810 5812 5814 5816 5818 5819 5821 5822 5823 5824 5824 5825 5827 5828 5829 5830 5831 5832 5833 5834 5834 5835 5836 5837 5838 5838 5839 5839 5840 5840 5841 5841 5842 5843 5843 5844 5844 5844 5844 5845 5845 5845 5845 5845 5845 5845 5845 5845 5845 5845 5845 5846 5846 5846 5845
5763 5762 5762 5762 5762 5761 5761 5760 5758 5758 5758 5759 5761 5763 5766 5768 5771 5774 5777 5779 5781 5783 5785 5786 5787 5789 5791 5794 5796 5799 5801 5804 5807 5809 5810 5812 5814 5816 5817 5819 5820 5821 5822 5822 5824 5825 5826 5827 5828 5829 5829 5830 5831 5832 5832 5833 5834 5835 5835 5836 5836 5836 5837 5837 5838 5838 5838 5839 5839 5839 5839 5839 5840 5840 5840 5840 5840 5840 5839 5839 5839 5839 5839 5839 5839 5839 5838
5761 5761 5761 5761 5760 5759 5758 5757 5756 5755 5756 5757 5759 5762 5765 5767 5770 5773 5774 5775 5776 5778 5781 5783 5783 5785 5788 5791 5793 5795 5798 5801 5803 5806 5807 5809 5811 5812 5814 5815 5817 5818 5819 5820 5821 5822 5823 5824 5824 5825 5826 5827 5827 5828 5829 5830 5830 5831 5831 5832 5832 5833 5833 5833 5834 5834 5834 5834 5835 5835 5835 5835 5835 5835 5834 5834 5834 5834 5834 5834 5833 5833 5833 5833 5833 5832 5832
5760 5760 5760 5760 5759 5758 5756 5755 5754 5754 5755 5756 5757 5760 5763 5766 5768 5771 5773 5773 5772 5773 5775 5778 5780 5783 5786 5789 5790 5793 5796 5799 5801 5803 5805 5807 5808 5810 5811 5812 5814 5815 5817 5818 5819 5819 5820 5821 5822 5822 5823 5824 5824 5825 5826 5826 5827 5827 5828 5829 5829 5829 5830 5830 5830 5830 5830 5831 5831 5831 5831 5830 5830 5830 5830 5830 5829 5829 5829 5828 5828 5828 5827 5827 5827 5826 5826
5759 5759 5759 5759 5759 5757 5756 5754 5753 5753 5754 5755 5756 5758 5761 5764 5767 5769 5771 5771 5771 5772 5774 5776 5779 5782 5784 5786 5788 5791 5794 5797 5799 5801 5802 5804 5806 5807 5808 5809 5811 5812 5814 5815 5816 5817 5818 5818 5819 5819 5820 5821 5821 5822 5822 5823 5823 5824 5824 5825 5825 5826 5826 5826 5826 5826 5826 5826 5826 5826 5826 5826 5826 5826 5825 5825 5824 5824 5823 5823 5822 5822 5821 5821 5821 5820 5819
5758 5758 5757 5757 5758 5757 5756 5755 5754 5753 5754 5755 5756 5757 5759 5762 5764 5767 5769 5770 5771 5773 5775 5777 5780 5782 5783 5784 5787 5790 5792 5794 5797 5798 5800 5802 5803 5804 5806 5807 5808 5810 5811 5812 5813 5814 5815 5815 5816 5816 5817 5817 5818 5818 5819 5819 5820 5820 5821 5821 5821 5822 5822 5822 5822 5822 5822 5822 5822 5821 5821 5821 5821 5821 5820 5820 5819 5818 5817 5817 5816 5815 5814 5814 5814 5813 5812
5757 5757 5757 5757 5757 5757 5757 5756 5755 5755 5755 5756 5756 5757 5758 5759 5762 5765 5768 5770 5771 5773 5775 5777 5779 5780 5782 5783 5785 5788 5790 5793 5795 5797 5799 5800 5801 5803 5804 5805 5806 5807 5808 5809 5810 5811 5812 5812 5813 5813 5814 5814 5815 5815 5815 5816 5816 5816 5817 5817 5817 5817 5817 5817 5817 5817 5817 5817 5816 5816 5816 5815 5815 5814 5814 5813 5812 5812 5811 5810 5809 5808 5807 5806 5806 5805 5805
5756 5756 5756 5757 5757 5757 5757 5757 5757 5757 5757 5758 5759 5759 5759 5760 5762 5765 5767 5769 5771 5772 5774 5776 5777 5779 5781 5783 5785 5787 5789 5792 5794 5795 5797 5798 5800 5801 5802 5803 5805 5806 5807 5808 5808 5809 5809 5809 5810 5810 5810 5811 5811 5812 5812 5812 5812 5812 5812 5813 5813 5813 5812 5812 5812 5812 5812 5811 5811 5811 5810 5810 5809 5808 5807 5807 5806 5805 5804 5803 5802 5801 5800 5799 5798 5797 5797
5754 5755 5756 5756 5757 5757 5757 5757 5758 5758 5758 5759 5760 5761 5761 5762 5764 5766 5768 5770 5771 5773 5774 5775 5777 5779 5781 5783 5785 5787 5789 5791 5792 5794 5795 5797 5798 5799 5800 5801 5803 5804 5805 5805 5806 5806 5806 5807 5807 5807 5807 5808 5808 5808 5808 5808 5808 5808 5808 5808 5808 5808 5808 5807 5807 5806 5806 5805 5805 5804 5804 5803 5803 5802 5801 5800 5799 5798 5797 5796 5795 5794 5793 5792 5790 5789 5789
5753 5754 5755 5756 5756 5757 5757 5757 5758 5758 5758 5759 5760 5761 5762 5763 5765 5767 5769 5771 5772 5773 5774 5776 5778 5779 5781 5783 5785 5787 5789 5790 5791 5793 5794 5795 5796 5797 5798 5799 5800 5801 5802 5803 5803 5803 5804 5804 5804 5805 5805 5805 5805 5805 5804 5804 5804 5804 5803 5803 5803 5802 5802 5801 5801 5800 5799 5798 5798 5797 5796 5796 5795 5794 5793 5792 5791 5791 5789 5788 5787 5786 5785 5784 5782 5781 5780
5751 5753 5754 5755 5756 5756 5757 5757 5758 5758 5759 5760 5761 5762 5763 5765 5766 5768 5770 5771 5773 5774 5775 5777 5779 5780 5782 5783 5785 5787 5788 5789 5790 5791 5792 5793 5794 5795 5796 5797 5798 5799 5799 5800 5800 5801 5801 5801 5801 5802 5802 5802 5802 5801 5801 5801 5800 5799 5799 5798 5797 5797 5796 5795 5794 5793 5792 5791 5790 5789 5788 5787 5786 5785 5784 5783 5782 5781 5780 5779 5778 5777 5776 5775 5773 5772 5771
5749 5751 5752 5753 5755 5756 5756 5757 5758 5759 5759 5761 5762 5763 5765 5766 5767 5768 5770 5771 5773 5774 5775 5777 5778 5780 5781 5783 5784 5786 5787 5788 5789 5790 5791 5792 5792 5793 5794 5795 5795 5796 5797 5797 5797 5798 5798 5798 5798 5798 5798 5798 5798 5797 5797 5796 5796 5795 5794 5793 5792 5791 5790 5789 5788 5786 5785 5784 5783 5781 5780 5779 5777 5776 5774 5773 5772 5771 5769 5768 5767 5766 5766 5764 5763 5761 5760
5747 5749 5750 5752 5753 5754 5755 5756 5757 5758 5759 5760 5762 5763 5765 5766 5767 5768 5769 5771 5772 5773 5775 5776 5777 5779 5780 5781 5783 5784 5785 5786 5787 5788 5789 5790 5790 5791 5792 5792 5793 5793 5793 5794 5794 5794 5794 5794 5794 5793 5793 5793 5792 5792 5791 5790 5790 5789 5788 5787 5786 5785 5783 5782 5780 5779 5777 5776 5774 5773 5771 5770 5768 5766 5765 5763 5762 5760 5758 5757 5756 5755 5754 5752 5751 5749 5747
5745 5747 5748 5749 5750 5752 5753 5754 5755 5756 5758 5759 5761 5762 5764 5765 5766 5768 5769 5770 5771 5772 5773 5775 5776 5777 5779 5780 5781 5782 5783 5784 5785 5786 5786 5787 5788 5789 5789 5789 5790 5790 5790 5790 5790 5790 5790 5789 5788 5788 5787 5787 5786 5785 5785 5784 5783 5782 5781 5780 5779 5777 5776 5774 5773 5771 5770 5768 5766 5764 5763 5761 5759 5757 5755 5753 5751 5749 5747 5745 5744 5743 5741 5740 5738 5736 5734
5743 5745 5746 5747 5748 5750 5751 5752 5754 5755 5756 5758 5759 5760 5762 5763 5765 5766 5767 5768 5770 5771 5772 5773 5775 5776 5777 5778 5779 5780 5781 5782 5783 5783 5784 5785 5785 5786 5786 5786 5787 5787 5787 5786 5786 5786 5785 5784 5784 5783 5782 5781 5780 5779 5779 5778 5776 5775 5774 5773 5771 5770 5768 5767 5765 5763 5762 5760 5758 5756 5753 5751 5749 5746 5744 5742 5740 5737 5735 5733 5731 5729 5728 5726 5724 5723 5721
5741 5742 5744 5745 5746 5748 5749 5750 5752 5753 5755 5756 5757 5758 5760 5761 5763 5764 5766 5767 5768 5769 5770 5772 5773 5774 5775 5776 5777 5778 5779 5779 5780 5781 5781 5782 5782 5783 5783 5783 5783 5783 5783 5782 5782 5781 5780 5779 5779 5778 5777 5776 5775 5774 5772 5771 5770 5769 5767 5765 5764 5762 5760 5759 5757 5755 5753 5751 5748 5746 5744 5741 5739 5736 5734 5731 5729 5726 5724 5721 5719 5717 5715 5712 5710 5708 5707
5739 5740 5742 5743 5744 5746 5747 5748 5750 5751 5753 5754 5755 5756 5758 5759 5761 5762 5763 5765 5766 5767 5768 5770 5771 5772 5772 5773 5774 5775 5776 5777 5778 5778 5779 5779 5779 5779 5779 5779 5779 5779 5778 5778 5777 5776 5775 5774 5773 5772 5771 5770 5768 5767 5766 5765 5763 5761 5760 5758 5756 5754 5752 5750 5748 5745 5743 5741 5738 5736 5733 5731 5728 5725 5723 5720 5717 5714 5711 5708 5706 5703 5701 5698 5695 5693 5691
5737 5738 5740 5741 5742 5744 5745 5747 5748 5749 5751 5752 5753 5755 5756 5757 5758 5760 5761 5762 5763 5765 5766 5767 5768 5769 5770 5771 5772 5773 5773 5774 5775 5775 5776 5776 5776 5776 5776 5775 5775 5775 5774 5773 5772 5771 5770 5769 5768 5766 5765 5764 5762 5761 5759 5758 5756 5754 5752 5750 5748 5745 5743 5741 5738 5736 5733 5731 5728 5725 5722 5720 5717 5714 5712 5709 5705 5702 5698 5695 5692 5689 5686 5683 5680 5678 5676
5734 5736 5738 5739 5741 5742 5744 5745 5746 5748 5749 5750 5752 5753 5754 5755 5757 5758 5759 5760 5761 5762 5763 5764 5765 5766 5767 5768 5769 5770 5770 5771 5772 5772 5772 5772 5772 5772 5772 5772 5771 5770 5769 5768 5767 5766 5764 5763 5762 5760 5759 5757 5756 5754 5753 5751 5749 5747 5745 5742 5740 5737 5734 5732 5729 5727 5724 5721 5718 5715 5712 5710 5707 5705 5702 5698 5695 5691 5687 5684 5681 5678 5675 5672 5669 5666 5664
5732 5734 5736 5738 5739 5741 5742 5743 5745 5746 5747 5748 5750 5751 5752 5753 5755 5756 5757 5758 5759 5759 5760 5761 5762 5763 5764 5765 5766 5767 5767 5768 5768 5769 5769 5769 5769 5769 5768 5768 5767 5766 5765 5763 5762 5761 5760 5758 5757 5755 5754 5752 5750 5748 5746 5744 5742 5740 5737 5735 5732 5729 5727 5724 5721 5718 5715 5712 5709 5706 5703 5701 5698 5696 5692 5689 5686 5682 5679 5676 5673 5670 5667 5664 5661 5658 5655
5730 5732 5734 5735 5737 5738 5740 5741 5743 5744 5745 5746 5748 5749 5750 5751 5752 5753 5754 5755 5756 5757 5758 5759 5760 5761 5762 5763 5763 5764 5765 5765 5765 5765 5765 5765 5765 5764 5764 5763 5762 5761 5760 5759 5757 5756 5755 5754 5752 5750 5748 5746 5744 5742 5740 5737 5735 5732 5730 5727 5724 5722 5719 5716 5713 5710 5706 5703 5700 5698 5695 5693 5690 5687 5684 5681 5678 5675 5672 5669 5666 5663 5660 5657 5653 5650 5648
5728 5729 5731 5733 5735 5736 5738 5739 5741 5742 5743 5744 5745 5747 5748 5749 5750 5751 5752 5753 5754 5755 5756 5757 5758 5759 5759 5760 5761 5761 5762 5762 5762 5762 5762 5761 5761 5760 5760 5759 5758 5756 5755 5754 5753 5752 5750 5749 5747 5745 5743 5740 5738 5736 5733 5730 5728 5725 5722 5720 5717 5714 5711 5708 5705 5701 5699 5696 5693 5690 5688 5685 5682 5680 5676 5673 5671 5668 5665 5662 5660 5657 5654 5650 5647 5643 5641
5726 5728 5729 5731 5733 5734 5736 5737 5738 5740 5741 5742 5743 5744 5745 5746 5748 5749 5750 5751 5752 5753 5754 5754 5755 5756 5757 5757 5758 5758 5759 5759 5758 5758 5758 5757 5757 5756 5755 5754 5753 5752 5750 5749 5748 5746 5745 5743 5741 5738 5736 5734 5731 5729 5726 5723 5720 5718 5715 5712 5709 5706 5703 5699 5696 5693 5690 5688 5685 5683 5680 5678 5675 5672 5669 5666 5663 5661 5658 5655 5653 5650 5647 5643 5640 5637 5634
5724 5725 5727 5729 5730 5732 5733 5735 5736 5737 5738 5739 5740 5741 5743 5744 5745 5746 5747 5748 5749 5750 5751 5752 5753 5753 5754 5754 5755 5755 5755 5755 5754 5754 5754 5753 5752 5752 5750 5749 5748 5746 5745 5743 5742 5740 5738 5736 5734 5732 5729 5727 5724 5722 5719 5716 5713 5710 5707 5704 5701 5698 5695 5692 5688 5685 5683 5680 5678 5675 5673 5670 5667 5664 5661 5659 5656 5653 5651 5648 5646 5643 5640 5637 5633 5630 5628
5721 5723 5724 5726 5728 5729 5731 5732 5733 5734 5735 5736 5738 5739 5740 5741 5742 5743 5744 5745 5746 5747 5748 5749 5750 5750 5751 5751 5751 5751 5751 5750 5750 5750 5749 5749 5748 5747 5745 5744 5742 5741 5739 5738 5736 5734 5732 5730 5728 5725 5723 5720 5718 5715 5712 5709 5706 5703 5700 5697 5694 5691 5688 5684 5681 5678 5675 5673 5670 5668 5665 5663 5660 5657 5654 5651 5648 5646 5643 5641 5639 5636 5634 5631 5627 5624 5622
5719 5720 5722 5723 5725 5727 5728 5729 5730 5731 5733 5734 5735 5736 5737 5738 5739 5740 5741 5742 5743 5744 5745 5746 5746 5747 5747 5747 5747 5747 5747 5746 5746 5745 5744 5743 5742 5741 5740 5738 5736 5735 5733 5732 5730 5728 5726 5724 5722 5719 5716 5714 5711 5708 5706 5703 5700 5697 5694 5691 5687 5684 5681 5678 5675 5671 5668 5666 5663 5660 5658 5655 5653 5650 5647 5644 5641 5639 5636 5634 5632 5630 5628 5625 5622 5619 5617
5716 5718 5719 5721 5722 5724 5725 5726 5728 5729 5730 5732 5733 5733 5734 5735 5736 5737 5739 5740 5740 5741 5742 5742 5743 5743 5743 5743 5743 5742 5742 5742 5741 5740 5739 5738 5737 5735 5734 5732 5731 5730 5728 5726 5724 5722 5720 5718 5716 5713 5711 5708 5705 5703 5700 5697 5694 5691 5688 5685 5681 5678 5675 5672 5668 5665 5662 5659 5656 5654 5651 5648 5646 5643 5640 5637 5635 5632 5630 5628 5627 5625 5623 5620 5617 5614 5612
5714 5715 5717 5718 5720 5721 5722 5724 5725 5726 5728 5729 5729 5730 5731 5732 5733 5735 5735 5736 5737 5737 5738 5738 5738 5739 5738 5738 5738 5738 5737 5736 5736 5735 5734 5733 5731 5730 5728 5727 5726 5724 5722 5721 5719 5717 5715 5713 5710 5708 5705 5703 5700 5697 5694 5692 5688 5685 5682 5679 5676 5673 5669 5666 5663 5659 5656 5653 5650 5647 5645 5642 5639 5636 5634 5631 5629 5626 5624 5623 5621 5619 5618 5616 5613 5611 5608
5712 5714 5715 5716 5717 5718 5720 5721 5723 5724 5725 5726 5726 5727 5728 5729 5730 5731 5732 5733 5733 5734 5734 5734 5734 5734 5734 5734 5733 5732 5732 5731 5730 5730 5728 5727 5726 5724 5723 5722 5720 5719 5717 5715 5713 5712 5710 5707 5705 5703 5700 5697 5695 5692 5689 5686 5683 5680 5677 5674 5671 5668 5664 5661 5657 5654 5650 5647 5644 5642 5639 5636 5634 5631 5628 5625 5623 5621 5619 5617 5616 5614 5613 5611 5609 5607 5605
5710 5712 5713 5714 5715 5716 5718 5719 5720 5721 5722 5723 5724 5725 5725 5726 5727 5728 5729 5729 5729 5729 5730 5730 5730 5730 5729 5729 5728 5727 5727 5726 5725 5724 5723 5722 5720 5719 5718 5716 5715 5713 5712 5710 5708 5706 5704 5702 5700 5697 5695 5692 5690 5687 5684 5681 5678 5675 5672 5669 5666 5663 5659 5656 5652 5648 5645 5642 5639 5636 5634 5631 5629 5626 5623 5620 5618 5615 5614 5612 5611 5609 5608 5606 5605 5603 5601